TimeCDT,TemperatureF,Dew PointF,Humidity,Sea Level PressureIn,VisibilityMPH,Wind Direction,Wind SpeedMPH,Gust SpeedMPH,PrecipitationIn,Events,Conditions,WindDirDegrees,DateUTC
12:15 AM,78.8,69.8,74,29.88,10.0,SW,4.6,-,N/A,,Scattered Clouds,230,2012-09-04 05:15:00
12:35 AM,77.0,69.8,78,29.88,10.0,SW,3.5,-,N/A,,Scattered Clouds,220,2012-09-04 05:35:00
12:55 AM,75.2,69.8,83,29.88,10.0,SW,3.5,-,N/A,,Clear,220,2012-09-04 05:55:00
1:15 AM,75.2,68.0,78,29.88,10.0,SSW,4.6,-,N/A,,Scattered Clouds,200,2012-09-04 06:15:00
1:35 AM,75.2,68.0,78,29.87,10.0,South,4.6,-,N/A,,Scattered Clouds,190,2012-09-04 06:35:00
1:55 AM,73.4,66.2,78,29.87,10.0,Calm,Calm,-,N/A,,Scattered Clouds,0,2012-09-04 06:55:00
2:15 AM,71.6,66.2,83,29.86,10.0,Calm,Calm,-,N/A,,Scattered Clouds,0,2012-09-04 07:15:00
2:35 AM,71.6,66.2,83,29.87,10.0,Calm,Calm,-,N/A,,Scattered Clouds,0,2012-09-04 07:35:00
2:55 AM,69.8,64.4,83,29.87,7.0,Calm,Calm,-,N/A,,Scattered Clouds,0,2012-09-04 07:55:00
3:15 AM,69.8,64.4,83,29.88,7.0,Calm,Calm,-,N/A,,Clear,0,2012-09-04 08:15:00
3:35 AM,69.8,64.4,83,29.88,7.0,Calm,Calm,-,N/A,,Scattered Clouds,0,2012-09-04 08:35:00
3:55 AM,69.8,64.4,83,29.88,7.0,Calm,Calm,-,N/A,,Scattered Clouds,0,2012-09-04 08:55:00
4:15 AM,69.8,64.4,83,29.89,7.0,Calm,Calm,-,N/A,,Scattered Clouds,0,2012-09-04 09:15:00
4:55 AM,69.8,64.4,83,29.89,5.0,Calm,Calm,-,N/A,,Scattered Clouds,0,2012-09-04 09:55:00
5:15 AM,69.8,64.4,83,29.90,4.0,NE,3.5,-,N/A,,Scattered Clouds,40,2012-09-04 10:15:00
5:35 AM,69.8,64.4,83,29.91,4.0,Calm,Calm,-,N/A,,Scattered Clouds,0,2012-09-04 10:35:00
5:55 AM,69.8,64.4,83,29.91,5.0,Calm,Calm,-,N/A,,Scattered Clouds,0,2012-09-04 10:55:00
6:15 AM,68.0,64.4,88,29.91,4.0,Calm,Calm,-,N/A,,Scattered Clouds,0,2012-09-04 11:15:00
6:35 AM,68.0,64.4,88,29.91,4.0,Calm,Calm,-,N/A,,Scattered Clouds,0,2012-09-04 11:35:00
6:55 AM,68.0,64.4,88,29.90,4.0,Calm,Calm,-,N/A,,Scattered Clouds,0,2012-09-04 11:55:00
7:15 AM,66.2,62.6,88,29.91,2.5,Calm,Calm,-,N/A,,Scattered Clouds,0,2012-09-04 12:15:00
7:35 AM,68.0,64.4,88,29.92,4.0,Calm,Calm,-,N/A,,Clear,0,2012-09-04 12:35:00
7:55 AM,69.8,64.4,83,29.91,4.0,Calm,Calm,-,N/A,,Clear,0,2012-09-04 12:55:00
8:15 AM,71.6,66.2,83,29.91,7.0,Calm,Calm,-,N/A,,Clear,0,2012-09-04 13:15:00
8:35 AM,73.4,68.0,83,29.91,10.0,Calm,Calm,-,N/A,,Clear,0,2012-09-04 13:35:00
8:55 AM,75.2,69.8,83,29.90,10.0,SSE,3.5,-,N/A,,Clear,150,2012-09-04 13:55:00
9:15 AM,78.8,69.8,74,29.90,10.0,SSE,5.8,-,N/A,,Clear,150,2012-09-04 14:15:00
9:35 AM,80.6,71.6,74,29.90,10.0,South,5.8,-,N/A,,Clear,180,2012-09-04 14:35:00
9:55 AM,82.4,71.6,70,29.91,10.0,SSW,8.1,-,N/A,,Clear,200,2012-09-04 14:55:00
10:15 AM,82.4,71.6,70,29.90,10.0,SSW,8.1,-,N/A,,Clear,210,2012-09-04 15:15:00
10:35 AM,82.4,71.6,70,29.91,10.0,SSW,6.9,-,N/A,,Clear,210,2012-09-04 15:35:00
10:55 AM,84.2,71.6,66,29.91,10.0,SSW,6.9,-,N/A,,Clear,210,2012-09-04 15:55:00
11:15 AM,86.0,71.6,62,29.90,10.0,South,4.6,-,N/A,,Scattered Clouds,180,2012-09-04 16:15:00
11:35 AM,87.8,73.4,62,29.90,10.0,South,5.8,-,N/A,,Clear,170,2012-09-04 16:35:00
11:55 AM,89.6,73.4,59,29.89,10.0,South,4.6,-,N/A,,Clear,190,2012-09-04 16:55:00
12:15 PM,89.6,73.4,59,29.89,10.0,West,4.6,-,N/A,,Clear,260,2012-09-04 17:15:00
12:35 PM,89.6,73.4,59,29.88,10.0,West,5.8,-,N/A,,Clear,260,2012-09-04 17:35:00
12:55 PM,91.4,73.4,55,29.88,10.0,WSW,3.5,-,N/A,,Clear,240,2012-09-04 17:55:00
1:15 PM,91.4,73.4,55,29.87,10.0,WNW,3.5,-,N/A,,Clear,300,2012-09-04 18:15:00
1:35 PM,93.2,75.2,56,29.86,10.0,Calm,Calm,-,N/A,,Clear,0,2012-09-04 18:35:00
1:55 PM,93.2,75.2,56,29.86,10.0,SE,3.5,-,N/A,,Clear,130,2012-09-04 18:55:00
2:15 PM,93.2,73.4,52,29.85,10.0,ESE,3.5,-,N/A,,Clear,120,2012-09-04 19:15:00
2:35 PM,93.2,75.2,56,29.84,10.0,East,4.6,-,N/A,,Clear,100,2012-09-04 19:35:00
2:55 PM,95.0,73.4,49,29.83,10.0,ESE,4.6,-,N/A,,Clear,110,2012-09-04 19:55:00
3:15 PM,96.8,73.4,47,29.82,10.0,SE,11.5,-,N/A,,Clear,140,2012-09-04 20:15:00
3:35 PM,96.8,73.4,47,29.82,10.0,South,8.1,-,N/A,,Clear,170,2012-09-04 20:35:00
3:55 PM,96.8,73.4,47,29.82,10.0,South,9.2,-,N/A,,Clear,170,2012-09-04 20:55:00
4:15 PM,96.8,73.4,47,29.81,10.0,South,8.1,-,N/A,,Clear,190,2012-09-04 21:15:00
4:35 PM,96.8,71.6,44,29.81,10.0,South,9.2,-,N/A,,Clear,180,2012-09-04 21:35:00
4:55 PM,96.8,73.4,47,29.80,10.0,South,9.2,-,N/A,,Clear,180,2012-09-04 21:55:00
5:15 PM,96.8,71.6,44,29.79,10.0,South,8.1,-,N/A,,Clear,180,2012-09-04 22:15:00
5:35 PM,96.8,69.8,41,29.79,10.0,South,9.2,-,N/A,,Clear,190,2012-09-04 22:35:00
5:55 PM,93.2,71.6,49,29.79,10.0,South,8.1,-,N/A,,Clear,180,2012-09-04 22:55:00
6:15 PM,91.4,73.4,55,29.79,10.0,South,5.8,-,N/A,,Clear,170,2012-09-04 23:15:00
6:35 PM,89.6,73.4,59,29.79,10.0,SSE,4.6,-,N/A,,Clear,160,2012-09-04 23:35:00
6:55 PM,87.8,73.4,62,29.78,10.0,SSE,4.6,-,N/A,,Scattered Clouds,150,2012-09-04 23:55:00
7:15 PM,87.8,73.4,62,29.77,10.0,SSE,5.8,-,N/A,,Clear,150,2012-09-05 00:15:00
7:35 PM,86.0,73.4,66,29.77,10.0,South,9.2,-,N/A,,Clear,170,2012-09-05 00:35:00
7:55 PM,87.8,73.4,62,29.77,10.0,SSE,11.5,-,N/A,,Clear,160,2012-09-05 00:55:00
8:15 PM,87.8,71.6,58,29.78,10.0,SSE,6.9,-,N/A,,Scattered Clouds,160,2012-09-05 01:15:00
8:35 PM,87.8,71.6,58,29.77,10.0,SSE,10.4,-,N/A,,Scattered Clouds,150,2012-09-05 01:35:00
8:55 PM,84.2,71.6,66,29.77,10.0,SSE,8.1,-,N/A,,Clear,150,2012-09-05 01:55:00
9:15 PM,84.2,71.6,66,29.78,10.0,South,8.1,-,N/A,,Scattered Clouds,170,2012-09-05 02:15:00
9:35 PM,84.2,71.6,66,29.77,10.0,SSE,8.1,-,N/A,,Clear,150,2012-09-05 02:35:00
9:55 PM,84.2,71.6,66,29.77,10.0,SSE,8.1,-,N/A,,Scattered Clouds,160,2012-09-05 02:55:00
10:15 PM,84.2,71.6,66,29.75,10.0,South,10.4,-,N/A,,Scattered Clouds,170,2012-09-05 03:15:00
10:35 PM,82.4,71.6,70,29.75,10.0,South,6.9,-,N/A,,Scattered Clouds,170,2012-09-05 03:35:00
10:55 PM,84.2,71.6,66,29.77,10.0,South,9.2,-,N/A,,Scattered Clouds,190,2012-09-05 03:55:00
11:15 PM,82.4,71.6,70,29.77,10.0,South,6.9,-,N/A,,Clear,180,2012-09-05 04:15:00
11:35 PM,80.6,71.6,74,29.77,10.0,Calm,Calm,-,N/A,,Scattered Clouds,0,2012-09-05 04:35:00
11:55 PM,78.8,71.6,78,29.76,10.0,Calm,Calm,-,N/A,,Clear,0,2012-09-05 04:55:00